Regional Weather Roundup
Issued by NWS

Home | Current Version | Previous Version | Text Only | Print | Product List | Glossary Off
Versions: 1 2 3 4 5 6 7 8 9 10 11 12 13 14 15 16 17 18 19 20 21 22 23 24 25 26 27 28 29 30 31 32 33 34 35 36 37 38 39 40 41 42 43 44 45 46 47 48 49 50

565
ASUS45 KBOU 231407
RWRCO

WEATHER ROUNDUP FOR COLORADO
NATIONAL WEATHER SERVICE DENVER/BOULDER CO
800 AM MDT SAT SEP 23 2017

NOTE: "FAIR" INDICATES FEW OR NO CLOUDS BELOW 12000 FEET WITH NO
SIGNIFICANT WEATHER AND/OR OBSTRUCTIONS TO VISIBILITY.

COZ001>005-013-030-031-231500-
...NORTHWEST COLORADO...

CITY           SKY/WX    TMP DP  RH WIND       PRES   REMARKS
CRAIG          CLOUDY    44  40  85 E10       29.94F
HAYDEN         LGT RAIN  41  39  93 CALM      30.00S
MEEKER         CLOUDY    47  43  86 E8        29.94R
RABBIT EARS PA PTSUNNY   37  32  81 CALM      30.09S
STEAMBOAT SPGS CLOUDY    41  39  93 CALM      29.99R
WALDEN         FAIR      34  32  93 CALM      30.02S
$$

COZ006>008-011-231500-
...WEST CENTRAL VALLEYS...

CITY           SKY/WX    TMP DP  RH WIND       PRES   REMARKS
GRAND JUNCTION CLOUDY    54  45  71 E18       29.84F
MONTROSE       LGT RAIN  48  48 100 W3        29.96R
EAGLE          FAIR      44  37  76 E7        29.95F
RIFLE          HVY RAIN  50  49  96 W3        29.95R FOG
DELTA          NOT AVBL
NUCLA          RAIN      48  45  87 SE8       29.98R
$$

COZ017>023-064>068-231500-
...SOUTHWEST COLORADO...

CITY           SKY/WX    TMP DP  RH WIND       PRES   REMARKS
DURANGO        PTSUNNY   53  45  74 NE3       29.93R
CORTEZ         RAIN      49  48  97 S5        29.94R FOG
PAGOSA SPRINGS CLOUDY    49  48  98 CALM      30.01S
TELLURIDE      RAIN      40  40 100 CALM      30.02F VSB 3/4
WOLF CREEK PAS LGT RAIN  34  34 100 S29G39    30.20R WCI  20
$$

COZ009-010-012-014-032>034-037-058>063-231500-
...CENTRAL COLORADO...

CITY           SKY/WX    TMP DP  RH WIND       PRES   REMARKS
ASPEN          CLOUDY    47  38  71 NW3       29.95R
BUENA VISTA    CLOUDY    46  43  90 CALM      30.04R
COPPER MTN     PTSUNNY   45  28  53 SE16G29   30.16R
BERTHOUD PASS  CLOUDY    32  25  74 SE33G45   30.20R WCI  17
COTTONWOOD PAS CLOUDY    48  43  81 SE14      30.11S
GUNNISON       LGT RAIN  48  39  71 N9        29.97S
KREMMLING      FAIR      41  36  81 CALM      29.99S
LEADVILLE      CLOUDY    39  37  92 NW3       30.06F
SALIDA         PTSUNNY   48  46  93 CALM      30.09S
SUNLIGHT       LGT RAIN  34  32  93 SW7       30.12R WCI  28
WILKERSON PASS DRIZZLE   37  36  93 S15G23    30.21S
$$

COZ069>075-231500-
...SAN LUIS VALLEY/SANGRE DE CRISTO MOUNTAINS...

CITY           SKY/WX    TMP DP  RH WIND       PRES   REMARKS
ALAMOSA        FAIR      45  43  93 E3        30.01F
DEL NORTE      FAIR      43  41  92 W7        30.03S
LA VETA PASS   FAIR      45  36  70 SW12G22   30.23F
SAGUACHE       FAIR      41  41 100 E9        30.05S
$$

COZ035-036-038>040-231500-
...NORTHERN COLORADO FRONT RANGE...

CITY           SKY/WX    TMP DP  RH WIND       PRES   REMARKS
DENVER INTL AP CLOUDY    46  42  86 NE9       30.01R
DMNS CITY PARK   N/A     47  41  77 N6G14     30.00F
AURORA         PTSUNNY   45  43  93 N5        30.01S
FRONT RANGE AP NOT AVBL
ERIE MUNI ARPT CLOUDY    49  42  77 N5        30.07R
BOULDER MUN AP CLOUDY    48  41  76 NE5       30.01R
CENTENNIAL     PTSUNNY   46  42  86 N8        30.01R
BROOMFIELD     CLOUDY    46  43  87 NW5       30.03R
FORT COLLINS   CLOUDY    48  40  73 NE9       30.01R
LONGMONT       CLOUDY    50  42  71 NE3       30.03R HAZE
$$

COZ041-046-047-076>085-087-088-231500-
...PIKES PEAK/PALMER DIVIDE AND SOUTHERN FOOTHILLS...

CITY           SKY/WX    TMP DP  RH WIND       PRES   REMARKS
COLO. SPRINGS  LGT RAIN  52  40  63 NW7       29.98F
A. F. ACADEMY  DRIZZLE   48  37  66 N12       29.99S
SCHRIEVER AFB  PTSUNNY   50  38  64 MISG      29.97F
CHEYENNE MTN   PTSUNNY   55  38  53 N3        29.95F
ELLICOTT       LGT RAIN N/A N/A N/A N5        29.94F
FALCON         CLOUDY    51  38  61 N8        30.01S
FORT CARSON    CLOUDY    54  39  56 NW8       29.94F
LIMON            N/A    N/A N/A N/A MISG      29.96F
MONUMENT HILL  CLOUDY    41  37  87 W5        30.04S
CANON CITY     MOSUNNY   57  45  62 CALM      29.93F
WALSENBURG     FAIR      55  43  62 NW3       29.94F
TRINIDAD       PTSUNNY   59  56  89 SE5       29.94S
$$

COZ042>045-048>051-090-091-231500-
...NORTHEAST COLORADO...

CITY           SKY/WX    TMP DP  RH WIND       PRES   REMARKS
GREELEY ARPT   CLOUDY    48  41  76 N6        30.02R
AKRON          CLOUDY    46  40  79 N14       29.97S
BURLINGTON     FAIR      55  47  74 NW12      29.94R
WRAY           CLOUDY    50  50 100 N12       29.94F FOG
YUMA           CLOUDY    46  41  81 N14       29.95F
STERLING       CLOUDY    48  41  76 NE12      29.96F
HOLYOKE        CLOUDY    52  45  76 N12       29.96S
FORT MORGAN    CLOUDY    48  39  70 NE9       30.00R
$$

COZ086-089-092>099-231500-
...SOUTHEAST COLORADO...

CITY           SKY/WX    TMP DP  RH WIND       PRES   REMARKS
PUEBLO         PTSUNNY   57  42  57 CALM      29.90S
LA JUNTA       FAIR      59  46  62 N13       29.86F
LAMAR          FAIR      71  61  70 SE8       29.83F
SPRINGFIELD      N/A     63  63 100 S9        29.91R
$$




USA.gov is the U.S. government's official web portal to all federal, state and local government web resources and services.